Location: ?
(35.3436°N, 139.3168°E)
Time: 10:48:27
(UTC+00:00)

X-37B - Pass Details

Date: 28 January 2021
Orbit: 383 x 391 km, 45.0° (Epoch: 10 February)

Event Time Altitude Azimuth Distance (km) Brightness Sun altitude
Rises 10:07:16 0° 305° (NW) 2,275 5.2 -24.7°
Reaches altitude 10° 10:09:25 10° 314° (NW) 1,419 3.9 -25.1°
Enters shadow 10:10:06 15° 319° (NW) 1,167 3.4 -25.3°
